Weather History for GORNA ORECHOVIS, BG

Change the Weather History Date:

Friday, March 21, 2014

  Actual Average Record
Temperature  
Mean Temperature 52 °F -  
Max Temperature 71 °F - - ()
Min Temperature 32 °F - - ()
Degree Days  
Heating Degree Days 14    
Growing Degree Days 2 (Base 50)    
Moisture  
Dew Point 37 °F    
Average Humidity 67    
Maximum Humidity 100    
Minimum Humidity 25    
Precipitation  
Precipitation 0.00 in - - ()
Sea Level Pressure  
Sea Level Pressure 30.25 in    
Wind  
Wind Speed 3 mph ()    
Max Wind Speed 11 mph    
Max Gust Speed -    
Visibility 4.3 miles    
Events Fog    
T = Trace of Precipitation, MM = Missing Value Source: Averaged Metar Reports

Daily Weather History Graph

Daily Weather History Graph

Search for Another Location

Airport:

Trip Planner

Search our weather history database for the weather conditions in past years. The results will help you decide how hot, cold, wet, or windy it might be!

Date:

Astronomy

Mar. 21, 2014 Rise Set
Actual Time 6:19 AM EET 6:30 PM EET
Civil Twilight 5:50 AM EET 6:58 PM EET
Nautical Twilight 5:17 AM EET 7:32 PM EET
Astronomical Twilight 4:43 AM EET 8:06 PM EET
Moon 11:38 PM EET (3/21) 8:48 AM EET (3/21)
Length of Visible Light 13h 07m
Length of Day
12h 11m
Waning Gibbous, 78% of the Moon is Illuminated
Mar 21
Waning Gibbous
Mar 24
Last Quarter
Mar 30
New
Apr 7
First Quarter
Apr 15
Full

Hourly Weather History & Observations

Time (EET) Temp. Windchill Dew Point Humidity Pressure Visibility Wind Dir Wind Speed Gust Speed Precip Events Conditions
12:00 AM 39.2 °F - 37.4 °F 93% 30.30 in - Calm Calm - N/A   Clear
1:00 AM 37.4 °F - 37.4 °F 100% 30.30 in 5.6 mi Calm Calm - N/A   Scattered Clouds
2:00 AM 33.8 °F - 33.8 °F 100% 30.33 in 3.7 mi Calm Calm - N/A   Scattered Clouds
3:00 AM 35.6 °F - 35.6 °F 100% 30.30 in - Calm Calm - N/A   Scattered Clouds
4:00 AM 33.8 °F - 33.8 °F 100% 30.30 in 4.3 mi East 2.2 mph - N/A   Scattered Clouds
5:00 AM 33.8 °F - 33.8 °F 100% 30.33 in 2.5 mi North 2.2 mph - N/A   Scattered Clouds
6:00 AM 32.0 °F - 32.0 °F 100% 30.33 in 3.7 mi East 2.2 mph - N/A Fog Shallow Fog
7:00 AM 32.0 °F - 32.0 °F 100% 30.33 in 4.3 mi ENE 2.2 mph - N/A Fog Shallow Fog
8:00 AM 41.0 °F 38.1 °F 41.0 °F 100% 30.36 in 6.2 mi East 4.5 mph - N/A   Scattered Clouds
9:00 AM 48.2 °F - 44.6 °F 87% 30.33 in - Variable 4.5 mph - N/A   Clear
10:00 AM 55.4 °F - 46.4 °F 72% 30.33 in - Variable 4.5 mph - N/A   Clear
11:00 AM 60.8 °F - 44.6 °F 55% 30.30 in - East 6.7 mph - N/A   Clear
12:00 PM 66.2 °F - 44.6 °F 46% 30.27 in - East 6.7 mph - N/A   Clear
1:00 PM 69.8 °F - 41.0 °F 35% 30.24 in - East 6.7 mph - N/A   Clear
2:00 PM 69.8 °F - 37.4 °F 31% 30.21 in - East 6.7 mph - N/A   Clear
3:00 PM 71.6 °F - 37.4 °F 29% 30.18 in - Variable 4.5 mph - N/A   Clear
4:00 PM 71.6 °F - 33.8 °F 25% 30.15 in - East 8.9 mph - N/A   Clear
5:00 PM 71.6 °F - 33.8 °F 25% 30.15 in - SE 11.2 mph - N/A   Clear
6:00 PM 68.0 °F - 32.0 °F 26% 30.15 in - SSE 8.9 mph - N/A   Clear
7:00 PM 62.6 °F - 32.0 °F 32% 30.15 in - SSE 6.7 mph - N/A   Clear
8:00 PM 50.0 °F - 39.2 °F 66% 30.15 in - East 8.9 mph - N/A   Clear
9:00 PM 50.0 °F - 39.2 °F 66% 30.15 in - East 8.9 mph - N/A   Clear
10:00 PM 48.2 °F - 37.4 °F 66% 30.15 in - Variable 4.5 mph - N/A   Clear
11:00 PM 51.8 °F - 37.4 °F 58% 30.15 in - SE 8.9 mph - N/A   Clear